Stations météo

réclame
Mon MeteoGroup
Ponza, Italie (16280): Température de l'air & dewpoint: 19.06.2018 06:00:00 - 25.06.2018 06:00:00 (CEST)Ponza, Italie (16280): Vitesse du vent: 19.06.2018 06:00:00 - 25.06.2018 06:00:00 (CEST)Ponza, Italie (16280): Direction du vent: 19.06.2018 06:00:00 - 25.06.2018 06:00:00 (CEST)Ponza, Italie (16280): reduced air pressure: 19.06.2018 06:00:00 - 25.06.2018 06:00:00 (CEST)Ponza, Italie (16280): visibility: 19.06.2018 06:00:00 - 25.06.2018 06:00:00 (CEST)Ponza, Italie (16280): Ensoleillement: 19.06.2018 06:00:00 - 25.06.2018 06:00:00 (CEST)
Date & Time tt [°C] td [°C] ff [km/h] ff [knt] dd ppp [hPa] vv [km] sd [min]
25.06.2018 06:00:00 - - - - - - - -
25.06.2018 05:00:00 22,0 18,0 15 8 ESE 1013,3 15 -
25.06.2018 04:00:00 22,0 19,0 16 9 ESE 1013,3 15 -
25.06.2018 03:00:00 22,0 20,8 16 9 N 1013,4 15 -
25.06.2018 02:00:00 22,0 20,7 15 8 N 1013,4 15 -
25.06.2018 01:00:00 22,6 20,9 16 9 N 1013,4 15 -
25.06.2018 00:00:00 22,6 20,5 11 6 NNW 1013,9 15 -
24.06.2018 23:00:00 22,8 20,7 11 6 NNW 1014,1 20 -
24.06.2018 22:00:00 23,0 20,0 18 10 NNW 1013,9 25 -
24.06.2018 21:00:00 23,6 19,1 15 8 N 1013,2 25 -
24.06.2018 20:00:00 23,8 18,7 15 8 WNW 1013,3 25 0
24.06.2018 19:00:00 24,0 17,7 9 5 W 1013,5 25 36
24.06.2018 18:00:00 24,6 17,6 9 5 W 1013,8 30 36
24.06.2018 17:00:00 24,8 17,3 11 6 SSW 1014,0 20 36
24.06.2018 16:00:00 24,6 16,1 11 6 SSE 1014,3 20 60
24.06.2018 15:00:00 25,0 16,7 9 5 ENE 1015,1 20 36
24.06.2018 14:00:00 24,8 16,8 9 5 N 1015,1 20 24
24.06.2018 13:00:00 25,0 17,0 15 8 E 1015,2 15 60
24.06.2018 12:00:00 24,8 18,0 16 9 E 1015,3 15 60
24.06.2018 11:00:00 24,0 17,3 18 10 E 1015,3 15 60
24.06.2018 10:00:00 23,0 17,7 18 10 NW 1015,1 15 60
24.06.2018 09:00:00 22,8 17,3 21 11 E 1014,0 15 60
24.06.2018 08:00:00 21,0 17,6 21 11 E 1014,5 10 60
24.06.2018 07:00:00 21,2 17,6 16 9 ENE 1014,5 10 60
24.06.2018 06:00:00 21,4 17,2 21 11 ENE 1014,4 10 -
24.06.2018 05:00:00 21,0 16,4 22 12 ENE 1014,3 10 -
24.06.2018 04:00:00 22,0 19,2 13 7 ENE 1014,0 15 -
24.06.2018 03:00:00 22,0 18,8 13 7 ENE 1014,2 15 -
24.06.2018 02:00:00 22,6 18,2 15 8 NNE 1014,5 15 -
24.06.2018 01:00:00 22,8 18,5 15 8 NE 1014,5 15 -
24.06.2018 00:00:00 22,6 16,9 15 8 NE 1014,5 15 -
23.06.2018 23:00:00 23,2 18,3 16 9 ENE 1014,3 15 -
23.06.2018 22:00:00 23,4 18,5 16 9 ENE 1014,1 20 -
23.06.2018 21:00:00 24,0 19,3 15 8 ENE 1013,6 20 -
23.06.2018 20:00:00 25,0 19,2 0 0 N 1013,2 15 60
23.06.2018 19:00:00 25,2 19,1 13 7 NW 1013,1 15 60
23.06.2018 18:00:00 26,0 18,7 15 8 NE 1013,3 15 60
23.06.2018 17:00:00 26,0 17,6 22 12 ENE 1013,9 20 60
23.06.2018 16:00:00 25,8 17,7 22 12 ENE 1014,2 15 60
23.06.2018 15:00:00 26,0 17,9 21 11 ENE 1014,2 15 60
23.06.2018 14:00:00 26,0 16,8 26 14 ENE 1014,1 20 60
23.06.2018 13:00:00 25,2 19,4 24 13 ENE 1014,1 40 60
23.06.2018 12:00:00 24,6 19,2 29 16 ENE 1014,1 40 60
23.06.2018 11:00:00 24,2 18,8 31 17 ENE 1013,7 40 60
23.06.2018 10:00:00 24,0 19,1 28 15 ENE 1013,6 30 60
23.06.2018 09:00:00 23,2 20,5 24 13 N 1013,5 30 42
23.06.2018 08:00:00 23,0 21,3 26 14 E 1013,3 30 54
23.06.2018 07:00:00 22,8 21,2 24 13 E 1012,4 20 0
23.06.2018 06:00:00 22,6 21,6 21 11 E 1012,3 20 -
23.06.2018 05:00:00 22,6 22,1 11 6 E 1012,3 30 -
23.06.2018 04:00:00 22,8 22,0 13 7 ESE 1012,3 30 -
23.06.2018 03:00:00 22,8 22,3 9 5 SE 1012,3 30 -
23.06.2018 02:00:00 23,0 22,5 9 5 SE 1012,3 30 -
23.06.2018 01:00:00 23,2 22,4 8 4 SE 1012,3 30 -
23.06.2018 00:00:00 23,8 23,0 5 3 S 1012,2 30 -
22.06.2018 23:00:00 24,0 23,5 5 3 SSW 1012,2 20 -
22.06.2018 22:00:00 24,0 23,5 13 7 SW 1012,1 20 -
22.06.2018 21:00:00 24,2 23,9 13 7 SW 1012,0 20 -
22.06.2018 20:00:00 24,6 24,1 11 6 SSW 1011,6 10 18
22.06.2018 19:00:00 25,8 24,6 9 5 SW 1011,3 10 60
22.06.2018 18:00:00 26,6 24,8 9 5 WNW 1011,5 10 60
22.06.2018 17:00:00 26,8 24,7 16 9 WSW 1012,0 10 60
22.06.2018 16:00:00 27,0 24,7 16 9 WSW 1012,0 10 54
22.06.2018 15:00:00 27,2 24,5 13 7 W 1012,7 10 60
22.06.2018 14:00:00 27,0 24,3 9 5 WNW 1013,0 10 60
22.06.2018 13:00:00 26,2 23,5 8 4 N 1013,5 20 60
22.06.2018 12:00:00 26,2 23,9 8 4 SW 1013,9 20 60
22.06.2018 11:00:00 25,4 23,3 8 4 W 1013,7 20 60
22.06.2018 10:00:00 24,4 22,8 4 2 SSW 1013,8 20 60
22.06.2018 09:00:00 24,2 22,6 4 2 W 1013,9 20 60
22.06.2018 08:00:00 24,0 23,0 4 2 W 1013,7 20 60
22.06.2018 07:00:00 22,6 22,1 2 1 W 1013,7 20 18
22.06.2018 06:00:00 22,4 21,9 4 2 W 1013,6 20 -
22.06.2018 05:00:00 22,6 22,1 8 4 SW 1013,2 20 -
22.06.2018 04:00:00 22,6 22,1 8 4 SW 1013,7 20 -
22.06.2018 03:00:00 23,0 22,5 8 4 WSW 1014,4 20 -
22.06.2018 02:00:00 23,0 22,5 8 4 WSW 1014,7 20 -
22.06.2018 01:00:00 23,0 22,3 8 4 WSW 1015,2 20 -
22.06.2018 00:00:00 23,0 22,3 8 4 WSW 1015,2 20 -
21.06.2018 23:00:00 23,2 22,5 8 4 WSW 1015,2 20 -
21.06.2018 22:00:00 23,6 23,1 5 3 W 1014,8 20 -
21.06.2018 21:00:00 23,8 23,1 8 4 W 1014,6 20 -
21.06.2018 20:00:00 25,0 23,8 5 3 W 1014,8 20 0
21.06.2018 19:00:00 26,6 24,2 8 4 WNW 1014,5 20 60
21.06.2018 18:00:00 27,0 24,5 8 4 WNW 1014,6 20 60
21.06.2018 17:00:00 27,0 24,3 13 7 WSW 1015,0 20 60
21.06.2018 16:00:00 27,2 24,3 11 6 W 1015,3 20 60
21.06.2018 15:00:00 26,6 23,9 11 6 W 1015,6 20 60
21.06.2018 14:00:00 26,0 23,3 9 5 W 1016,1 20 60
21.06.2018 13:00:00 24,8 23,0 2 1 SE 1017,2 10 60
21.06.2018 12:00:00 25,0 23,6 4 2 WSW 1017,0 10 60
21.06.2018 11:00:00 24,8 22,3 4 2 WSW 1017,1 10 36
21.06.2018 10:00:00 25,4 22,9 4 2 N 1016,7 10 60
21.06.2018 09:00:00 24,6 22,5 4 2 N 1016,5 10 60
21.06.2018 08:00:00 23,4 21,7 4 2 NNE 1016,5 10 60
21.06.2018 07:00:00 21,8 20,8 5 3 SSE 1016,8 10 18
21.06.2018 06:00:00 21,6 21,1 5 3 SSE 1016,9 10 -
21.06.2018 05:00:00 21,8 21,1 8 4 ESE 1017,0 10 -
21.06.2018 04:00:00 - - - - - - - -
21.06.2018 03:00:00 21,6 20,9 4 2 NE 1017,5 10 -
21.06.2018 02:00:00 21,8 21,3 5 3 NE 1017,6 10 -
21.06.2018 01:00:00 21,8 21,5 8 4 NE 1017,5 10 -
21.06.2018 00:00:00 22,0 21,7 9 5 NNE 1017,4 10 -
20.06.2018 23:00:00 22,0 21,7 13 7 NE 1017,4 10 -
20.06.2018 22:00:00 21,8 21,1 13 7 NE 1017,0 10 -
20.06.2018 21:00:00 22,2 21,9 16 9 NE 1017,1 10 -
20.06.2018 20:00:00 25,6 24,2 13 7 NNE 1016,6 10 0
20.06.2018 19:00:00 27,0 24,8 8 4 W 1016,2 10 0
20.06.2018 18:00:00 28,0 24,2 8 4 W 1016,1 10 30
20.06.2018 17:00:00 28,4 24,6 9 5 W 1016,3 10 60
20.06.2018 16:00:00 29,0 24,1 9 5 W 1016,2 10 60
20.06.2018 15:00:00 29,0 23,7 8 4 WSW 1016,8 10 60
20.06.2018 14:00:00 29,2 22,9 4 2 W 1016,8 10 60
20.06.2018 13:00:00 29,2 22,2 5 3 S 1017,1 20 60
20.06.2018 12:00:00 27,4 22,6 8 4 ENE 1017,2 10 60
20.06.2018 11:00:00 26,6 22,4 13 7 E 1017,0 10 60
20.06.2018 10:00:00 26,6 23,3 11 6 E 1017,1 10 60
20.06.2018 09:00:00 25,0 22,3 13 7 E 1016,7 10 60
20.06.2018 08:00:00 24,6 22,7 11 6 E 1016,4 10 60
20.06.2018 07:00:00 24,0 22,3 16 9 ESE 1016,4 10 24
20.06.2018 06:00:00 23,8 21,7 18 10 ESE 1016,2 10 0
20.06.2018 05:00:00 24,0 21,5 16 9 ESE 1015,7 10 -
20.06.2018 04:00:00 24,0 22,6 16 9 ESE 1015,7 10 -
20.06.2018 03:00:00 24,0 22,3 18 10 ESE 1015,9 10 -
20.06.2018 02:00:00 24,0 22,3 15 8 ESE 1015,7 10 -
20.06.2018 01:00:00 24,0 22,2 13 7 ESE 1015,6 10 -
20.06.2018 00:00:00 25,0 22,1 13 7 ENE 1015,1 10 -
19.06.2018 23:00:00 25,0 20,9 8 4 NE 1015,3 10 -
19.06.2018 22:00:00 25,0 20,5 9 5 NNW 1015,2 10 -
19.06.2018 21:00:00 24,8 22,3 9 5 NNW 1014,6 10 -
19.06.2018 20:00:00 - - - - - - - -
19.06.2018 19:00:00 27,6 25,4 9 5 W 1014,1 15 60
19.06.2018 18:00:00 28,0 25,4 13 7 W 1014,0 15 60
19.06.2018 17:00:00 28,4 25,2 15 8 W 1014,4 15 60
19.06.2018 16:00:00 28,6 25,8 15 8 WSW 1014,8 20 60
19.06.2018 15:00:00 28,8 24,6 15 8 WSW 1014,9 20 60
19.06.2018 14:00:00 29,0 22,5 9 5 WSW 1014,9 20 60
19.06.2018 13:00:00 30,0 23,0 5 3 N 1015,0 15 60
19.06.2018 12:00:00 29,8 21,7 5 3 N 1014,8 15 60
19.06.2018 11:00:00 29,8 22,2 4 2 N 1014,7 15 60
19.06.2018 10:00:00 27,0 22,6 8 4 E 1014,8 15 60
19.06.2018 09:00:00 25,4 21,3 8 4 NNE 1014,2 8 60
19.06.2018 08:00:00 25,0 20,3 4 2 NNE 1014,0 7 60
19.06.2018 07:00:00 25,0 20,3 4 2 NNE 1014,0 7 60
19.06.2018 06:00:00 24,0 21,5 9 5 NNW 1013,3 10 36

tt = Température de l'air
td = dewpoint
ff = Vitesse du vent
dd = Direction du vent
ppp = reduced air pressure
vv = visibility
sd = Ensoleillement

stations d'obs. à proximité